Regional Weather Roundup
Issued by NWS Midland/Odessa, TX

Skip options and go directly to product.
Home | Oldest Version | Previous Version | Current Version | All | Text Only | Save Text | Print | Product List | Glossary On

Skip product version selection by date and time.   
733
ASUS44 KMAF 302010
RWRMAF
MIDLAND AREA WEATHER ROUNDUP
NATIONAL WEATHER SERVICE MIDLAND TX
300 PM CDT SAT APR 30 2016

...IN SOUTHWEST TEXAS AND SOUTHEAST NEW MEXICO...

CITY           SKY/WX    TMP DP  RH WIND       PRES   REMARKS
ALPINE         SUNNY     78  14   9 SW14G20   29.91S
ANDREWS        FAIR      73  37  27 CALM      29.82F
ARTESIA        SUNNY     73  30  20 N9        29.76F
BIG SPRING     SUNNY     71  39  30 S5        29.84S
CARLSBAD       SUNNY     78  24  13 VRB7G23   29.75F
DRYDEN           N/A     87  18   8 W7G23     29.74F
FORT STOCKTON  SUNNY     81  25  12 NW9       29.78F
GUAD PASS      SUNNY     72  22  15 W30G40    29.87S
HOBBS          MOSUNNY   73  25  16 SW9G16    29.82F
MARFA          SUNNY     74  15  10 SW14      29.88F
MIDLAND AIRPK  SUNNY     77  36  22 E5        29.82F
MIDLAND INTL   SUNNY     77  35  21 W9        29.81F
ODESSA         MOSUNNY   77  34  21 CALM      29.81F
PECOS          SUNNY     80  24  12 W8G17     29.77F
PRESIDIO       NOT AVBL
SEMINOLE       SUNNY     73  38  27 W10G18    29.83F
SNYDER           N/A     69  46  42 CALM      29.83F
WINK           SUNNY     78  30  17 VRB5      29.77F
$$
...OTHER STATIONS IN TEXAS...

CITY           SKY/WX    TMP DP  RH WIND       PRES   REMARKS
ABILENE        SUNNY     71  49  45 SW6       29.82F
AMARILLO       CLOUDY    57  38  48 N12       29.89S
AUSTIN         MOSUNNY   80  65  59 CALM      29.74F
BROWNSVILLE    SUNNY     88  76  67 NE9       29.65S
CORPUS CHRISTI PTSUNNY   92  70  48 E7        29.65F
DALLAS FTW     PTSUNNY   74  59  59 NW10      29.77F
DEL RIO        SUNNY     88  35  15 E8        29.71F
EL PASO        MOSUNNY   75  23  14 SW12G21   29.81F
HOUSTON INT    MOSUNNY   84  64  50 E6        29.69F
LUBBOCK        MOSUNNY   68  38  33 VRB5      29.83F
SAN ANGELO     SUNNY     76  47  35 NE3       29.80F
SAN ANTONIO    MOSUNNY   85  60  42 N10       29.74F
WACO           MOSUNNY   76  62  62 VRB6      29.77F
WICHITA FALLS  NOT AVBL
$$
...OTHER LOCATIONS IN NEW MEXICO...

CITY           SKY/WX    TMP DP  RH WIND       PRES   REMARKS
ALAMAGORDO     MOSUNNY   70  25  18 SE6G20    29.82F
ALBUQUERQUE    PTSUNNY   61  32  33 N9        29.84F
CANNON AFB     NOT AVBL
CLOVIS         MOSUNNY   61  37  41 CALM      29.86F
HOLLOMAN AFB   MOSUNNY   73  25  16 SW13      29.80F
ROSWELL        MOSUNNY   74  28  18 E8        29.77F
RUIDOSO          N/A     57  23  26 E13       29.90S
SANTA FE       PTSUNNY   58  27  30 SW8       29.85F
TRUTH OR CONSE MOSUNNY   68  26  20 VRB3      29.79F
TUCUMCARI      SUNNY     61  39  44 E12G17    29.85F
$$

USA.gov is the U.S. government's official web portal to all federal, state and local government web resources and services.